Terug naar catalogus

STARLINK-3358

ActiefCommunicatieVLEO
NORAD 51109·PAYLOAD·🇺🇸 United States

Gelanceerd Jan 19, 2022 vanaf Cape Canaveral Space Force Station

Loading…

Volgende Passages (komende 24 uur)

TLE

VersSource: CelesTrak SupGP

Epoch: Sep 15, 2026, 01:24 UTC

1 51109C 22005F   26258.05881944  .00018368  00000+0  59068-3 0  2581
2 51109  53.1596 151.2366 0001284  81.8576  55.4760 15.31691239    19

Volg STARLINK-3358 in realtime met AllMySat

Download on the App Store